Regional Weather Roundup
Issued by NWS Cleveland, OH

Home | Current Version | Previous Version | Graphics & Text | Print | Product List | Glossary On
Versions: 1 2 3 4 5 6 7 8 9 10 11 12 13 14 15 16 17 18 19 20 21 22 23 24 25 26 27 28 29 30 31 32 33 34 35 36 37 38 39 40 41 42 43 44 45 46 47 48 49 50
000
ASUS41 KCLE 241000
RWRCLE
OHIO REGIONAL WEATHER ROUNDUP
NATIONAL WEATHER SERVICE WILMINGTON, OH
600 AM EDT THU JUL 24 2014

NOTE: "FAIR" INDICATES FEW OR NO CLOUDS BELOW 12,000 FEET WITH NO
SIGNIFICANT WEATHER AND/OR OBSTRUCTIONS TO VISIBILITY.

OHZ001>008-015>018-024>027-034-035-043-044-241100-
   NORTHWEST OHIO

CITY           SKY/WX    TMP DP  RH WIND       PRES   REMARKS
DEFIANCE       CLEAR     57  53  86 N5        30.10R
FINDLAY        CLEAR     56  53  90 NW6       30.06R
TOLEDO EXPRESS CLEAR     55  51  86 N5        30.08R
TOLEDO METCALF CLEAR     58  50  75 N7        30.08R
LIMA           CLEAR     57  55  93 N5        30.07S FOG
$$

OHZ009>014-019>023-028>033-038-089-241100-
   NORTHEAST OHIO

CITY           SKY/WX    TMP DP  RH WIND       PRES   REMARKS
CLE-HOPKINS    MOCLDY    64  54  69 N9        30.05R
CLE-LAKEFRONT  MOCLDY    66  54  65 N12       30.03R
CUY CO. ARPT   NOT AVBL
LORAIN-ELYRIA  PTCLDY    63  55  75 N6        30.05R
ASHTABULA      MOCLDY    57  55  93 CALM      30.04R
AKRON-CANTON   CLEAR     58  55  90 N6        30.04R
WOOSTER        NOT AVBL
MANSFIELD      PTCLDY    54  54 100 NW6       30.05R FOG
YOUNGSTOWN     MOCLDY    59  55  87 N6        30.03R
$$

OHZ042-051>053-060>062-070>072-077>081-241100-
  SOUTHWEST OHIO

CITY           SKY/WX    TMP DP  RH WIND       PRES   REMARKS
CINC-COVINGTON MOCLDY    64  54  69 NE16      30.01R
CINC-LUNKEN    CLOUDY    63  54  72 NE10      30.02R
HAMILTON       CLEAR     60  56  86 N5        30.04R
DAYTON         NOT AVBL
WRIGHT-PAT AFB CLEAR     58  56  93 N12       30.04S
DAYTON GENERAL CLEAR     59  56  89 N12       30.03R
WILMINGTON     CLOUDY    59  55  87 NE12      30.02R
$$

OHZ036-037-039>041-045>050-054>059-063>069-073>076-082>088-241100-
  CENTRAL AND SOUTHEAST OHIO

CITY           SKY/WX    TMP DP  RH WIND       PRES   REMARKS
COLUMBUS       PTCLDY    59  54  83 N7        30.03R
OSU AIRPORT    CLEAR     56  54  93 N6        30.04R
BOLTON FIELD   NOT AVBL
RICKENBACK AFB NOT AVBL
NEWARK         PTCLDY    59  55  87 VRB6      30.03R
MARION         CLEAR     56  53  90 N6        30.06R
LANCASTER      CLOUDY    60  57  89 N5        30.02R
ZANESVILLE     CLOUDY    61  56  83 N5        30.02R
NEW PHILLY     CLEAR     56  55  97 CALM      30.03R
$$


USA.gov is the U.S. government's official web portal to all federal, state and local government web resources and services.